Flag for Switzerland Weather past 2 weeks in Burgdorf, Bern, Switzerland

Now
59 °F

Passing clouds.


Feels Like: 59 °F
Forecast: 54 / 64 °F
Wind: 5 mph from Southeast

Location: Bern / Belp

Current Time: Jul 28, 2014 at 6:18:58 AM

Latest Report: Jul 28, 2014 at 5:50 AM


Visibility: N/A

Pressure: 29.95 "Hg

Humidity: 94%

Dew point: 57 °F

Location of BurgdorfLocation

Historic Weather in Burgdorf — Graph

°F

Burgdorf temperature yesterday

Maximum temperature yesterday: 75 °F (at 1:50 PM)
Minimum temperature yesterday: 59 °F (at 12:20 AM)
Average temperature yesterday: 66 °F

Past Weeks' High & Low Weather Summary

 TemperatureHumidityPressure
High88 °F (Jul 18, 2:50 PM)100% (Jul 13, 4:20 AM)30.21 "Hg (Jul 13, 4:20 AM)
Low52 °F (Jul 16, 5:20 AM)29% (Jul 17, 6:20 PM)29.86 "Hg (Jul 19, 11:50 PM)
Average66 °F79%30.02 "Hg
* Reported Jul 13 4:20 AM — Jul 28 4:20 AM, Burgdorf, Weather by CustomWeather, © 2014

Note: Actual official high and low records may vary slightly from our data, if they occured in-between our weather recording intervals... More about our weather records

Advertising

Burgdorf weather history for previous 24 hours

 ConditionsComfort  
Time TempWeatherWind HumidityBarometerVisibility
4:20 AM
Jul 28
59 °FOvercast.1 mph94%29.98 "HgN/A
3:50 AM59 °FOvercast.1 mph94%29.98 "HgN/A
3:20 AM57 °FPassing clouds.2 mph100%29.98 "HgN/A
2:50 AM59 °FPassing clouds.6 mph94%29.98 "HgN/A
2:20 AM59 °FCool.5 mph94%30.01 "HgN/A
1:50 AM59 °FPassing clouds.6 mph94%30.01 "HgN/A
1:20 AM61 °FPassing clouds.5 mph94%30.01 "HgN/A
12:50 AM61 °FPassing clouds.6 mph94%30.04 "HgN/A
12:20 AM61 °FPassing clouds.2 mph94%30.04 "HgN/A
11:50 PM
Jul 27
63 °FOvercast.1 mph94%30.04 "HgN/A
11:20 PM63 °FOvercast.2 mph94%30.04 "HgN/A
10:50 PM64 °FPartly cloudy.1 mph88%30.04 "HgN/A
10:20 PM66 °FPartly cloudy.2 mph83%30.04 "HgN/A
9:50 PM66 °FPartly sunny.No wind83%30.04 "HgN/A
9:20 PM68 °FBroken clouds.No wind83%30.04 "HgN/A
8:50 PM70 °FBroken clouds.No wind73%30.04 "HgN/A
8:20 PM72 °FPartly sunny.3 mph61%30.04 "HgN/A
7:50 PM73 °FScattered clouds.6 mph57%30.04 "HgN/A
7:20 PM73 °FPartly sunny.5 mph57%30.01 "HgN/A
6:50 PM75 °FScattered clouds.3 mph57%30.01 "HgN/A
6:20 PM75 °FBroken clouds.3 mph54%30.01 "HgN/A
5:50 PM75 °FPassing clouds.3 mph57%30.01 "HgN/A
5:20 PM73 °FScattered clouds.5 mph65%30.04 "HgN/A
4:50 PM73 °FScattered clouds.3 mph61%30.04 "HgN/A
4:20 PM73 °FBroken clouds.5 mph61%30.04 "HgN/A
3:50 PM75 °FScattered clouds.5 mph57%30.04 "HgN/A
3:20 PM73 °FScattered clouds.3 mph57%30.04 "HgN/A
2:50 PM75 °FScattered clouds.3 mph54%30.07 "HgN/A
2:20 PM73 °FScattered clouds.5 mph65%30.07 "HgN/A
1:50 PM75 °FScattered clouds.6 mph57%30.07 "HgN/A
1:20 PM73 °FScattered clouds.5 mph65%30.07 "HgN/A
12:50 PM72 °FPartly sunny.5 mph69%30.07 "HgN/A
12:20 PM68 °FPartly sunny.6 mph73%30.07 "HgN/A
11:50 AM66 °FBroken clouds.5 mph78%30.07 "HgN/A
11:20 AM66 °FPartly sunny.8 mph78%30.07 "HgN/A
10:50 AM64 °FPartly sunny.8 mph83%30.07 "HgN/A
10:20 AM66 °FPartly sunny.6 mph83%30.07 "HgN/A
9:50 AM63 °FPartly sunny.6 mph94%30.07 "HgN/A
9:20 AM63 °FPartly sunny.5 mph94%30.07 "HgN/A
8:50 AM63 °FPartly sunny.3 mph88%30.07 "HgN/A
8:20 AM61 °FBroken clouds.2 mph94%30.07 "HgN/A
7:50 AM59 °FPartly sunny.3 mph100%30.07 "HgN/A
7:20 AM59 °FPartly sunny.3 mph100%30.04 "HgN/A
6:20 AM59 °FPassing clouds.5 mph94%30.04 "HgN/A
Weather by CustomWeather, © 2014

See weather overviewHow to use our weather pages